l'Écureuil - 23° Edition - 04/09/2016

119 Km


Pl Do. Nom - Surname Prénom - Name S-Cat /cat Club - Team TEMPS - Time Km/h /sx
1 582 AVRIL THOMAS MC 1 AS SAINT JUNIEN 03:15:51 36,45 1
2 436 ADANT PIERRE ME 1 ALCOOLO VELO 03:19:28 35,79 2
3 165 BREGEAT ALEXIS MC 2 CC BOSMIE 03:19:30 35,79 3
4 519 CAMUS JUSTN MC 3 ROUE LIBRE SARDENTAISE 03:19:30 35,79 4
5 38 ROUSSET FRANCIS MF 1 AC BOURGANEUF 03:19:30 35,79 5
6 59 BERTRAND FRANCIS ME 2 VC LA SOUTERRAINE 03:19:30 35,79 6
7 46 PAROT SYLVAIN MD 1 Démons de Guéret 03:19:31 35,79 7
8 555 ROY BENJAMIN MC 4 UC AIGURANDE 03:19:31 35,79 8
9 58 RIOLLET OLIVIER ME 3 VC LA SOUTERRAINE 03:19:31 35,78 9
10 44 LOISON STEPHANE MG 1 Démons de Guéret 03:19:31 35,78 10
11 26 PARLEBAS ENRICK MC 5 VCS 03:19:32 35,78 11
12 159 BURBAUD MAXIME MC 6 ROC CYCLO 03:19:32 35,78 12
13 162 DUTEIL ERIC MF 2 CYCLE AMICALE CIVRAISIEN 03:19:32 35,78 13
14 682 CARCENAC PHILIPPE MD 2   03:19:33 35,78 14
15 491 LEONARD QUENTIN MC 7 R.L SARDENT 03:19:34 35,78 15
16 55 BELLUC FREDERIC ME 4 ALCOOLO VELO 03:19:34 35,78 16
17 367 COLON FLORENT MC 8 RL SARDENT 03:19:36 35,77 17
18 758 BEAREZ BENJAMIN MC 9 PANA LOISIRS 03:25:28 34,75 18
19 120 LYONNET BERTRAND MF 3 U.S LA CHATRE 03:25:28 34,75 19
20 343 LEPETIT SYLVAIN MF 4 COMMENTRY CYCLISTE 03:25:28 34,75 20
21 678 DESFARGES THÉO MC 10 US NANTIAT 03:25:29 34,75 21
22 212 MAUMY JEAN LUC MG 2 AC ST VAURY 03:25:37 34,72 22
23 45 MEUNIER OLIVIER MC 11 Démons de Guéret 03:28:11 34,29 23
24 102 IMBERDIS MATHIEU MD 3 VCCO LA ROCHELLE 03:28:12 34,29 24
25 302 BENEZY MICKAEL MC 12 Velo sport montluconnais 03:28:44 34,20 25
26 167 GAUCHER MICHAEL MD 4 CC BOSMIE 03:31:35 33,74 26
27 1 GUILLARD GILLES MH 1 ELAN CYCLISTE AMBAZAC 03:31:35 33,74 27
28 290 THERY PASCAL MG 3 INDRE VELO PASSION 03:31:35 33,74 28
29 202 DETIENNE CEDRIC ME 5 JA ISLE VELO LOISIR 03:31:35 33,74 29
30 384 BERNARDO CÉDRIC MD 5 CC MAINSAT EVAUX 03:31:35 33,74 30
31 179 LEVEQUE PIERRE MC 13 CC BOSMIE 03:31:36 33,74 31
32 743 CHAMBON PIERRE ME 6 AL RIVIERES 03:31:36 33,74 32
33 113 VÉRON STÉPHANE MF 5   03:31:36 33,74 33
34 99 GABEAU CHRISTOPHE MF 6 AC VERNEUIL 03:31:36 33,74 34
35 136 MECHENET FRANCOIS MH 2 CS BELLAC CYCLISME 03:31:37 33,74 35
36 683 ROUGE JEAN-PAUL MH 3 COMMENTRY CYCLISTE 03:31:37 33,74 36
37 387 MARCILLAT CEDRIC ME 7   03:32:05 33,66 37
38 583 MEZERGUES ALAIN MH 4 AS SAINT JUNIEN 03:32:37 33,58 38
39 504 CERBELAUD ARTHUR MC 14 ROUE LIBRE SARDENTAISE 03:33:05 33,51 39
40 238 NARBONNE DIDIER MG 4 AC VERNEUIL 03:34:37 33,27 40
41 173 LAGEAT FRANCK MC 15 CC BOSMIE 03:35:21 33,15 41
42 482 HILLEWAERE JULIEN MC 16 ROUE LIBRE SARDENTAISE 03:35:22 33,15 42
43 756 CHOISNET MOANA ME 8 US NANTIAT 03:37:10 32,88 43
44 237 BUIS ERIC ME 9 AC VERNEUIL 03:37:11 32,88 44
45 464 MONJOFFRE ERIC MH 5 ROCHECHOUART 03:37:11 32,87 45
46 118 FAUGERAS DANIEL MG 5 PANA LOISIRS 03:37:11 32,87 46
47 334 PARVERY PHILIPPE MG 6 BOISSEUIL UNION CYCLISTE 03:37:12 32,87 47
48 126 MIRABLON CHRISTPOHE ME 10 AC CREUSOISE 03:37:12 32,87 48
49 242 DAVID SÉBASTIEN ME 11 AMBAZAC SPRINTER CLUB 03:37:13 32,87 49
50 122 AUCLAIR CHRISTOPHE MD 6 AC CREUSOISE 03:37:13 32,87 50
51 571 LEPERS THOMAS MD 7 CONDAT / VIENNE 03:37:13 32,87 51
52 584 DESHOULIERES FRANCIS MH 6 ST JUNIEN CYCLOTOURISME 03:37:13 32,87 52
53 166 LEVEQUE JEAN CHARLES MC 17 CC BOSMIE 03:37:13 32,87 53
54 20 FAGEON FRANCK MF 7 VC LA SOUTERRAINE 03:37:14 32,87 54
55 252 L HOSTIS HERVÉ MF 8   03:37:14 32,87 55
56 592 GUILLAUME SAMSON MD 8   03:37:15 32,86 56
57 438 VENTENAT DAVID ME 12 ALCOOLO VELO 03:37:18 32,86 57
58 47 GIBARD CEDRIC MC 18 Démons de Guéret 03:37:24 32,84 58
59 160 DULERY SYLVAIN ME 13 CC BOSMIE 03:37:29 32,83 59
60 116 DEPARIS SIMON MD 9   03:37:31 32,82 60
61 49 SIBIAL ANTOINE MJU 1 CSLG GENDARMERIE 23 03:38:41 32,65 61
62 255 PEACH CHARLES MF 9 LONDON DYNAMO 03:38:41 32,65 62
63 751 SALINIE FRÉDÉRIC MD 10 ASSOCIATION SPORTIVE ST JUNIEN CYCLOTOURISME 03:38:44 32,64 63
64 48 SIBIAL LUDOVIC ME 14 CSLG GENDARMERIE 23 03:38:45 32,64 64
65 706 CARRIER LAURENT MF 10 TEAM SPIRIT BIKE 63 03:38:46 32,64 65
66 403 DECROZE CYRIL ME 15 BRIANCE ROSELLE AVENTURE 03:38:46 32,64 66
67 295 THERY BERNARD MI 1 INDRE VELO PASSION 36 CHATEAUROUX 03:38:46 32,64 67
68 105 YVERNAULT NICOLAS MD 11 RL SARDENT 03:38:46 32,64 68
69 330 BOWLEY THOMAS MD 12 BOISSEUIL UNION CYCLISTE 03:38:47 32,63 69
70 291 DELBART STEVE MD 13 IVP CHÂTEAUROUX 03:38:48 32,63 70
71 339 DOUCET STEPHANE ME 16 BOISSEUIL UNION CYCLISTE 03:38:48 32,63 71
72 297 BEZELGA JEAN FRANCOIS MF 11 BONNAC VTT 03:38:49 32,63 72
73 611 GOURAUD JEAN LOUIS MJ 1 VPP NONTRON 03:38:50 32,63 73
74 191 CHARASSON OLIVIER MG 7 RSC GIGNAC 03:38:55 32,61 74
75 161 NELLIAS REGIS MF 12 VELO CLUB CHATILLONNAIS 03:39:05 32,59 75
76 749 RIVAUD GEOFFROY MC 19 UC CONDAT 03:39:08 32,58 76
77 106 LEFEUVRE PATRICK MG 8 RL SARDENT 03:39:09 32,58 77
78 112 CARON YANNICK MH 7 RANDONNEURS ROCHELAIS 03:39:10 32,58 78
79 30 CHERIFBAHIA ERIC ME 17 VELO SPORT CASTRAIS 03:42:48 32,05 79
80 7 TRINDADE JEROME MC 20 VC LA SOUTERRAINE 03:43:24 31,96 80
81 605 AFONSO CARLOS ME 18 ANC DUN LE PALESTEL 03:43:25 31,96 81
82 370 CHOFFEL PASCAL MF 13   03:43:32 31,94 82
83 735 DELUCHE LAURENT MF 14 US NANTIAT 03:46:20 31,55 83
84 614 MORICHON MICHEL MI 2 UC CONFOLENS 03:46:20 31,55 84
85 188 MOREAU BERNARD MI 3 VC LIGNIERES 03:46:21 31,54 85
86 203 ANDRIEU LIONEL ME 19 JA ISLE VELO LOISIR 03:46:21 31,54 86
87 535 MAZALAIRAS SEBASTIEN MD 14   03:46:22 31,54 87
88 639 TURQUOIS NICOLAS MD 15 cygognes de snecma 03:46:22 31,54 88
89 594 GUILLAUME THIBAUT MC 21   03:46:22 31,54 89
90 753 BIGNET CHRISTIAN MG 9 VC GOUZON 03:46:23 31,54 90
91 564 WILLIAMS MICHAEL MG 10   03:46:23 31,54 91
92 471 MUSIALIK DAVID MD 16   03:46:23 31,54 92
93 142 MOREIRA CARLOS MG 11 TAUFFLARD TEAM PAGEAS 03:46:23 31,54 93
94 740 LEPAGNEUL RÉMI MD 17 AC RILHAC RANCON 03:46:23 31,54 94
95 385 FAURE ERIC MF 15 EVCC BERGERAC 03:46:24 31,54 95
96 663 BOIJOU STEPHANE ME 20 AMITIE ET NATURE MONTLUCON 03:46:24 31,54 96
97 448 BURET PATRICK MI 4 ROC CYCLO 03:46:24 31,54 97
98 781 NOM PRENOM MNR 1   03:46:25 31,53 98
99 72 GARGAUD GILLES MH 8 VCS LA SOUTERRAINE 03:46:25 31,53 99
100 215 NUTTGENS FLORIAN MC 22 AC ST VAURY 03:46:25 31,53 100
101 643 MESMIN MIGUEL ME 21   03:46:25 31,53 101
102 310 PAILLARD LAURENT MF 16 UC ROYÈRES SAINT LEONARD 03:46:25 31,53 102
103 508 DUPE BRUNO ME 22 st leger la montagne vtt rando club 03:46:26 31,53 103
104 204 JARRY LACOMBE FREDERIC MH 9 JA ISLE VELO LOISIR 03:46:26 31,53 104
105 362 GAUT FLORENCE FA3 1 RSC GIGNAC 03:46:28 31,53 1
106 748 LEBAYLE PHILIPPE MG 12 ALCOOLO VELO 03:46:28 31,53 105
107 190 CANARD CHRISTIAN MJ 2   03:46:32 31,52 106
108 325 LAMIGE MICHEL MI 5 Amical Cycliste Oradour sur Glane 03:46:33 31,52 107
109 156 DISSAUX TIMOTHE MC 23   03:46:34 31,51 108
110 780 LALLIER FLORIAN MD 18   03:46:51 31,47 109
111 249 RAVARY ARNAUD MF 17 UC CORREZIENNE 03:47:00 31,45 110
112 250 GOURICHON PASCAL MH 10 UC CORREZIENNE 03:51:35 30,83 111
113 696 CHARLOIS FABRICE MF 18 CL MARTELL 03:52:50 30,66 112
114 6 PAPEIX DAVID ME 23 VC LA SOUTERRAINE 03:54:30 30,45 113
115 319 PENNICHON RODOLPHE ME 24   03:54:31 30,44 114
116 172 LAGEAT PATRICE MF 19 CC BOSMIE 03:54:32 30,44 115
117 8 MAZERAT EMMANUEL MF 20 VC LA SOUTERRAINE 03:54:37 30,43 116
118 234 BOBON LOÏC MG 13 AC PETIT PRESSIGNY 03:54:38 30,43 117
119 123 VERDY VINCENT MG 14 AC CREUSOISE 03:55:14 30,35 118
120 647 NOM PRENOM MNR 2   03:55:17 30,34 119
121 213 MAUMY OCEANE FA1 1 AC ST VAURY 03:55:17 30,34 2
122 581 DESMOULIERES DANIEL MI 6 AS SAINT JUNIEN 03:55:17 30,34 120
123 21 CHAPUT PAUL MG 15 AC ST VAURY 03:55:19 30,34 121
124 559 BARGUENO ALAIN MH 11 UPPN 03:55:19 30,34 122
125 217 CEDRE SEBASTIEN MC 24 AC ST VAURY 03:55:19 30,34 123
126 301 GUÉRAUD JEROME ME 25   03:55:20 30,34 124
127 37 HAMON DIDIER MG 16 AC BOURGANEUF 03:55:20 30,34 125
128 107 PLISSONNEAU SILVÈRE MG 17 Randonneurs Rochelais 03:55:20 30,34 126
129 778 MOPTY JEAN CHRISTOPHE ME 26 CAMBRAI 03:55:21 30,34 127
130 214 ARTIGAUD CHRISTOPHE ME 27 AC ST VAURY 03:55:21 30,34 128
131 393 AUBRAY THIERRY MG 18 AC val de claise 03:55:21 30,34 129
132 558 GEOFFRE FRANCIS MG 19 UC LUBERSAC 03:55:21 30,34 130
133 335 PONS FRANCIS MF 21 BOISSEUIL UNION CYCLISTE 03:55:21 30,34 131
134 777 MACRON OLIVIER ME 28   03:55:21 30,34 132
135 418 GAUDIO JEAN MG 20 ACC CHATELLERAULT 03:55:22 30,33 133
136 247 CARDOT ALAIN MI 7 UNION CYCLISTE CORREZIENNE 03:55:22 30,33 134
137 486 COURTIN PASCAL MG 21 AL RIVIERES 03:55:23 30,33 135
138 383 PICHON STEPHANE MF 22 CYCLOS CHINONAIS 03:55:24 30,33 136
139 34 TRINDADE NICOLAS MC 25 VELO SPORT CASTRAIS 03:55:25 30,33 137
140 243 BALCON RONAN ME 29   03:56:18 30,22 138
141 562 LE GOUGUEC FABIEN MF 23 VELO CLUB SAUXILLANGEOIS 03:56:54 30,14 139
142 141 PARLEBAS FABRICE MD 19 AMICALE CYCLISTE SOSTRANIENNE 03:57:04 30,12 140
143 183 ELOY CHRISTOPHE MF 24 ASSO SAINT FIEL VITAMINE 03:57:17 30,09 141
144 260 GOUVERNEUR VINCENT MG 22 AC VERNEUIL 03:57:35 30,05 142
145 340 DOUVILLE THIERRY MF 25 BOISSEUIL UNION CYCLISTE 03:58:19 29,96 143
146 194 CERVEAU ALAIN MF 26   03:58:20 29,96 144
147 461 SELLAS DOMINIQUE MF 27 USP LE POINCONNET 03:58:20 29,96 145
148 347 KINMONT JOHN CHRISTIAN MG 23 LONDON DYNAMO 03:58:21 29,96 146
149 784 CRAMPE PATRICK MG 24   03:58:21 29,96 147
150 517 SALAPIC STEPHANE MF 28 AC SAINT VAURY 03:58:22 29,95 148
151 3 PENOT CLAUDE MJ 3 VCS LA SOUTERRAINE 03:58:22 29,95 149
152 145 ALLEGRE JEAN-MARIE MI 8 NEUVY ST SEPULCHRE CYCLISME 03:58:23 29,95 150
153 574 LEFORT JEAN FRANCOIS MH 12 A S SAINT JUNIEN 04:00:15 29,72 151
154 259 GOUVERNEUR FLORENCE FA2 1 AC VERNEUIL 04:01:12 29,60 3
155 442 FONTAINE THIERRY MG 25 AS MEUDON CYCLISME 04:01:13 29,60 152
156 147 MALABRE CHRISTIAN MH 13   04:01:13 29,60 153
157 158 GAUTHIER BRUNO MI 9 AMICAL BORGOGNE CYCLISME 04:01:14 29,60 154
158 557 CHARBONNIER LAURENT ME 30 VELO CLUB SAINT PRIEST SOUS AIXE 04:01:25 29,57 155
159 239 CONDETTE GUY MJ 4 AC VERNEUIL 04:03:07 29,37 156
160 127 GABRIEL CHARLES ME 31 Velo club aubusson 04:03:45 29,29 157
161 331 JUST JEAN MICHEL MG 26 BOISSEUIL UNION CYCLISTE 04:03:49 29,28 158
162 61 PICHON RAPHAEL ME 32   04:03:51 29,28 159
163 521 MONDOT GRÉGORY MD 20 TAUPONT CYCLISME 04:04:10 29,24 160
164 700 VARELHIAS GILLES MG 27 AC VERNEUIL 04:04:12 29,24 161
165 502 MEILLARD LAURENT ME 33   04:04:13 29,24 162
166 543 CALDEYROUX JEAN PHILIPPE MF 29 AMITIE ET NATURE MONTLUCON 04:04:13 29,24 163
167 702 FORTUNE THIERRY MF 30 FAC 04:04:13 29,23 164
168 275 POUTHIER ALAIN ME 34 PEDALIER USSONNAIS 04:04:14 29,23 165
169 198 CARRIERE STEPHANE MD 21   04:04:15 29,23 166
170 586 BATAILLE DIDIER MG 28 AS SAINT JUNIEN 04:04:16 29,23 167
171 609 DESSAGNES ERIC MF 31 AMBAZAC SPRINTER CLUB 04:04:17 29,23 168
172 746 COURGNAUD WILLIAM ME 35 AMBAZAC SPRINTER CLUB 04:04:17 29,23 169
173 197 BEAUVAIS LUDOVIC MD 22   04:04:20 29,22 170
174 490 BONNET JEROME MC 26 ES BARDENAC 04:04:21 29,22 171
175 625 BORDEL FRANCIS MC 27 CC LES COPAINS 04:04:22 29,22 172
176 629 REYROLLE PHILIPPE MH 14 Cyclo Club les Copains 04:04:22 29,22 173
177 752 PENNARUN YVAN MG 29 ASMD LE MESNIL SAINT DENIS 04:04:22 29,22 174
178 607 CHARBONNEL ANDRE MJ 5   04:04:22 29,22 175
179 264 GIRARD CHRISTOPHE MD 23 VC OPPIDUM 04:04:42 29,18 176
180 176 BREGEAT BERNARD MG 30 CC BOSMIE 04:04:42 29,18 177
181 635 LAVAUD CHRISTOPHE MD 24   04:06:49 28,93 178
182 29 BAZALGUES CLAUDE MI 10 CAPO LIMOGES 04:06:52 28,92 179
183 782 PAPADACCI ROMAIN MD 25 BONNAC VTT 04:07:31 28,85 180
184 723 CHARBONNIER JEAN CHRISTOPHE ME 36 VELO CLUB SAINT PRIEST SOUS AIXE 04:07:31 28,85 181
185 368 PADER YVAN MI 11 VS GERZATOIS 04:07:32 28,84 182
186 685 BAILLARGEAT SEBASTIEN MF 32 VC ST PRIEST SOUS AIXE 04:07:32 28,84 183
187 550 DARTHOS BRUNO MH 15 US BESSINES CYCLO 04:07:32 28,84 184
188 18 PETIT JEAN LOUIS MI 12   04:07:33 28,84 185
189 12 BODEAUD LUDOVIC ME 37 ETOILE SPORTIVE CYCLISTE DU GRAND BOURG 04:07:33 28,84 186
190 248 JANNEAU STEPHANE MG 31 Ucc 04:07:34 28,84 187
191 538 BAROCCO FRANCIS MI 13 CYCLO CLUB REMOIS 04:07:35 28,84 188
192 480 BUSSET SERGE MF 33 CYCLO CLUB MELUSIN 04:07:35 28,84 189
193 738 CHARLES DIDIER MG 32 SVPBM 04:07:35 28,84 190
194 585 BECHADE RAYMOND MJ 6 ST JUNIEN CYCLOTOURISME 04:07:36 28,84 191
195 500 MANEGRIER MORGAN MD 26 BONNAC VTT 04:07:38 28,83 192
196 524 DEVAUD JEAN LOUIS MI 14 NIEUL 04:07:40 28,83 193
197 282 LAFOND GERARD MI 15 VIENNE BIATHLON 04:07:42 28,82 194
198 193 BELLION GERARD MJ 7   04:07:49 28,81 195
199 453 HILLEWAERE GUILLAUME MD 27 SPRINTER CLUB DE SERRES-CASTET 04:09:03 28,67 196
200 192 HIRAT JEAN FRANCOIS MH 16   04:09:43 28,59 197
201 407 LAURENSON PHILIPPE MI 16 ENTENTE CYCLISTE FELLETIN USSEL 04:10:01 28,56 198
202 32 TRINDADE LOUIS MG 33 TRINDADE UCI PRO TEAM 04:10:01 28,56 199
203 789 COUPAT JEAN CLAUDE MJ 8   04:10:03 28,55 200
204 713 FORTAT LAURENT MH 17   04:10:12 28,54 201
205 152 HEULIN SEBASTIEN ME 38 VC CANTON MARENNES 04:10:29 28,50 202
206 154 BIGOT CYRILLE ME 39   04:10:30 28,50 203
207 690 GIBAUD MICHEL MJ 9 UA LA ROCHEFOUCAULD 04:10:33 28,50 204
208 761 JONARD MICHEL MI 17 CHARVIEU CHAVAGNEUX 04:10:33 28,50 205
209 707 BOUTIN MARYLINE FA2 2 AMBAZAC SPRINTER CLUB 04:10:34 28,49 4
210 372 POIX THIERRY MI 18   04:10:34 28,49 206
211 354 LACAZE PIERRE MG 34   04:10:38 28,49 207
212 43 CHAINEAU THIERRY MG 35 AC BOURGANEUF 04:10:55 28,45 208
213 785 NOC AUGUSTIN MC 28   04:12:05 28,32 209
214 324 THERY JEAN-MARC MH 18 INDRE VELO PASSION 04:12:13 28,31 210
215 474 LAFOND THOMAS MD 28 JPCLUSSAC LES CHATEAUX 04:12:52 28,24 211
216 475 CHARENTON YOANN MD 29 cyclo club lussacois 04:12:52 28,23 212
217 741 CHARENTON JEAN-CLAUDE MJ 10 cyclo club lussacois 04:12:53 28,23 213
218 379 BARRETAUD PATRICK MH 19 AS LEGRAND 04:12:54 28,23 214
219 485 NATUREL ERIC MF 34   04:12:54 28,23 215
220 392 DUFOURT LOUIS MH 20 velo club livry gorgon 04:12:54 28,23 216
221 320 MALLET JEAN MICHEL MH 21 CLUB CYCLISTE SAINT AGNANT 04:12:55 28,23 217
222 440 LACROIX THIERRY MG 36   04:12:55 28,23 218
223 228 LEGER LUDOVIC MF 35   04:12:55 28,23 219
224 104 TRICHET PHILIPPE MH 22 Vélo Club NIORTAIS 04:13:02 28,22 220
225 765 NORE CHRISTIAN MI 19   04:13:05 28,21 221
226 792 GAUDON BERNARD MI 20   04:13:05 28,21 222
227 284 FABRIE ELIAN MH 23 PANA LOISIRS 04:13:09 28,20 223
228 246 BOUYGES JEAN-MARC MH 24 UNION CYCLISTE CORREZIENNE 04:13:12 28,20 224
229 148 DELAGE DIDIER MH 25   04:13:16 28,19 225
230 336 SAZERAT JEAN LUC MG 37 BOISSEUIL UNION CYCLISTE 04:13:17 28,19 226
231 366 FIEFVEZ PATRICK MH 26 EVCC BERGERAC 04:13:18 28,19 227
232 67 AUSSOURD CEDRIC MD 30   04:13:52 28,12 228
233 364 GRANET CHRISTIAN MJ 11 CYCLO CLUB EXIDEUIL 04:14:06 28,10 229
234 363 SALMON ALAIN MJ 12 CC EXIDEUIL SUR VIENNE 04:14:06 28,10 230
235 66 MAROT JEAN DAVID MD 31   04:14:28 28,06 231
236 350 LACOSTE GUY MH 27 EVCC BERGERAC 04:15:29 27,95 232
237 398 PATELOU BIDOU LIONEL ME 40 ELAN CYCLISTE AMBAZACOISE 04:15:41 27,92 233
238 757 EVANS GERALD MH 28   04:15:47 27,91 234
239 787 NOC GUILLAUME MG 38   04:16:27 27,84 235
240 285 JACOBEE THOMAS MC 29 PANA LOISIRS 04:16:35 27,83 236
241 261 FOUSSIER JEAN MARIE MJ 13 PEDALIER USSONNAIS 04:17:00 27,78 237
242 588 DESHOULIERES JACK MI 21 ST JUNIEN CYCLOTOURISME 04:17:01 27,78 238
243 189 MALABRE DANIEL MI 22 UNION CYCLISTE LUBERSAC 04:17:01 27,78 239
244 501 CRUVEILHER GILBERT MI 23   04:17:02 27,78 240
245 323 SAMMARTANO PHILIPPE ME 41   04:17:46 27,70 241
246 708 JAPAUD FAURE SYLVIE FA3 2 AMBAZAC SPRINTER CLUB 04:17:52 27,69 5
247 580 PREVOT JEAN LUC MH 29 AS SAINT JUNIEN 04:17:52 27,69 242
248 534 MOUTY MICHEL MH 30 EC FELLETIN USSEL 04:17:55 27,68 243
249 556 BALARD GILLES MJ 14 UC LUBERSAC 04:18:19 27,64 244
250 267 SAMMARTANO LAURENT ME 42 VELO CLUB GOUZON 04:18:48 27,59 245
251 481 DURAND VINCENT MC 30   04:19:01 27,56 246
252 487 VALADE JEAN-MICHEL MI 24   04:19:02 27,56 247
253 675 FAURY STEPHANE MD 32 CSLG 04:19:12 27,54 248
254 369 MOREAU PHILIPPE MH 31   04:19:34 27,51 249
255 472 MARCELLE SYLVAIN MG 39   04:19:35 27,51 250
256 390 GRANSAGNE JEAN CLAUDE MJ 15 VC HAUT MORILLON 04:19:52 27,48 251
257 560 AVELINE JEAN BAPTISTE MD 33   04:19:52 27,47 252
258 219 PAGNARD JEAN-MARIE MG 40 VÉLO CLUB BLANCOIS 04:19:56 27,47 253
259 266 FUMERON JACQUES MJ 16 VC NAINTRE 04:20:30 27,41 254
260 131 PICOT RENE MJ 17   04:21:12 27,33 255
261 5 BARUSSEAU J FRANCOIS MF 36 VCS LA SOUTERRAINE 04:21:58 27,26 256
262 4 SOULAS DIDIER MG 41 VC LA SOUTERRAINE 04:21:59 27,25 257
263 613 LARA-CARRASCO JOSE MJ 18 CCNG CAVIGNAC 04:22:02 27,25 258
264 479 GAILLARD FRANCK MF 37 TEAM GOODICOM 04:22:32 27,19 259
265 496 MARIE JEAN JACQUES MG 42 GOODICOM 04:22:41 27,18 260
266 280 DESCHAMPS PASCAL MI 25 VIENNE BIATHLON 04:23:05 27,14 261
267 632 BAUCHER JACKY MI 26   04:23:05 27,14 262
268 729 URVOIS LAURENT ME 43   04:23:08 27,13 263
269 450 BALLET JACQUES MH 32 TEAM MONT VENTOUX 04:23:08 27,13 264
270 359 LOUIS PASCAL MG 43 ASPTT ORLEANS 04:23:21 27,11 265
271 731 MEYRAT HERVE MF 38 ELAN CYCLISTE AMBAZAC 04:23:43 27,07 266
272 60 PICHON MICHEL MJ 19 VCS LA SOUTERRAINE 04:24:03 27,04 267
273 210 VARACHAUD PHILIPPE MF 39 JA ISLE VELO LOISIR 04:24:54 26,95 268
274 687 MAURY CHRISTIAN MJ 20 Saint denis union sport 04:25:04 26,94 269
275 546 ESTIQUE CHRISTOPHE MF 40   04:25:05 26,93 270
276 634 GAUTHIER CHRISTIAN MH 33 AL GOND PONTOUVRE 04:25:05 26,93 271
277 205 ROUSSIN JACQUES MH 34 JA ISLE VELO LOISIR 04:25:07 26,93 272
278 624 SOURNAIS ROMUALD MF 41 UPPN 04:25:13 26,92 273
279 677 BALLET GILLES MH 35   04:26:21 26,81 274
280 652 MABILLE SYLVAIN ME 44 PEUJARD VELO CLUB 04:27:01 26,74 275
281 651 MABILLE HELENE FA2 3 PEUJARD VELO CLUB 04:27:01 26,74 6
282 523 BELLARBRE JEAN CLAUDE MJ 21 Meuzac évasions 04:27:01 26,74 276
283 263 SELLES GILBERT MI 27 VC OPPIDUM 04:27:03 26,74 277
284 640 RANDA JEAN LOUIS MJ 22   04:27:04 26,73 278
285 405 CHESSERON JOËL MG 44 CYCLO SAUMUROIS 04:27:33 26,69 279
286 473 SALESSE DENIS MG 45 le poinconnet 04:27:33 26,69 280
287 434 FRANCHAISSE PATRICK MI 28 AC BOUSSAQUINE 04:28:22 26,60 281
288 352 LACOSTE SEBASTIEN MD 34   04:28:37 26,58 282
289 744 GUERARD ERIC MG 46 CYCLE POITEVIN 04:28:43 26,57 283
290 399 FOURNIE CLAUDE MJ 23 ARDENTES 04:28:43 26,57 284
291 53 BERGER JEAN LOUIS MJ 24 ANC DUN LE PALESTEL 04:28:44 26,57 285
292 298 BURLAT JEAN YVES MI 29 CAC CHATEAUROUX 04:28:45 26,57 286
293 484 PIQUET RENE MI 30   04:28:46 26,56 287
294 311 JANICOT JEAN CLAUDE MJ 25   04:28:48 26,56 288
295 226 AUDOIN ALAIN JEAN MJ 26 ASSO SPORTS VELO DU PAYS BASSE MARCHE 04:28:57 26,55 289
296 589 SCHREPF ALAIN MJ 27 AS SAINT JUNIEN 04:28:58 26,55 290
297 430 DUMONTET BRUNO MI 31 BOUSSAC 04:29:01 26,54 291
298 710 DUVOUX JEANNIK MI 32 Asso PLEIN AIR ET CULTURE 36 CHATEAUROUX 04:29:08 26,53 292
299 395 CHAPRON CHRISTOPHE ME 45 CYCLO CLUB MELUSIN 04:29:08 26,53 293
300 454 CHAUVET ALAIN MI 33 AC BOUSSAQUINE 04:29:08 26,53 294
301 39 BELIVIER JEAN PIERRE MI 34 CARO LIMOGES 04:29:09 26,53 295
302 144 DOUBRE THIERRY MG 47 AC COMITE AUVERGNE 04:29:09 26,53 296
303 525 GARREAU ALAIN MJ 28 VC JOUE LES TOURS 04:29:13 26,52 297
304 786 DEGOT PIERRE MG 48 CC NIEUL 04:29:42 26,47 298
305 220 BERGER-WAGON ISABELLE FA3 3 TEAM SAINT SAUVEUR 04:30:04 26,44 7
306 615 PERAT DANIEL MJ 29   04:30:52 26,36 299
307 230 COUTARD JEAN-FRANÇOIS MI 35 CC FEYTIAT 04:31:24 26,31 300
308 322 DEROUET PHILIPPE MJ 30 Cyclotouristes chatelleraudais 04:31:25 26,31 301
309 715 ABDELLOU FREDERIC MF 42   04:32:24 26,21 302
310 797 NOM PRENOM MNR 3   04:32:33 26,20 303
311 697 CARMANTRAND FRANCOIS MH 36 AC2R en Limousin 04:32:39 26,19 304
312 50 ORGE FREDERIC MF 43 CSLG GENDARMERIE 23 04:32:40 26,19 305
313 530 KELLY MARTIN MG 49   04:32:47 26,17 306
314 466 LEGOFF VIRGINIE FA2 4   04:32:49 26,17 8
315 465 DESSYMOULIE GILLES MG 50   04:32:49 26,17 307
316 561 FOUSSIER MICHEL MH 37 USSON DU POTOU 04:32:53 26,16 308
317 274 SOUIL DANIEL MG 51 PEDALIER USSONNAIS 04:32:53 26,16 309
318 281 GROLLEAU JEAN PIERRE MG 52 VIENNE BIATHLON 04:34:48 25,98 310
319 648 DECOUX DAVID MD 35   04:34:55 25,97 311
320 186 SALAPIC AURELIEN MC 31 SAINT FIEL VITAMINE 04:35:45 25,89 312
321 180 FAVAUDON PASCAL MH 38 ASSO SAINT FIEL VITAMINE 04:35:47 25,89 313
322 570 CIESLAK MATTHIEU MC 32   04:35:48 25,89 314
323 373 BIERNAIS DIDIER MH 39 BERNEUIL 04:36:47 25,80 315
324 269 PAULIAT JEAN-CLAUDE MJ 31 ACV 04:36:47 25,79 316
325 315 BREDECHE JACQUES MF 44 PANA LOISIRS 04:36:57 25,78 317
326 143 MASSY SERGE MG 53 TAUFFLARD TEAM PAGEAS 04:37:05 25,77 318
327 270 LABBE JEAN PIERRE MJ 32   04:37:06 25,77 319
328 265 ADALID FRANCK MG 54   04:37:06 25,77 320
329 328 FAUCONNET ADELINE FA1 2 BOISSEUIL UNION CYCLISTE 04:37:08 25,76 9
330 337 FAUCONNET PASCAL MI 36 BOISSEUIL UNION CYCLISTE 04:37:08 25,76 321
331 17 CREMIER JEAN PIERRE MG 55 ETOILE SPORTIVE CYCLISTE DU GRAND BOURG 04:37:09 25,76 322
332 299 BEZAUD MICHEL MI 37 VELO CLUB MAGNAC LAVAL 04:37:10 25,76 323
333 698 LAVAURE VINCENT MD 36 VC LA SOUTERRAINE 04:37:36 25,72 324
334 730 LAVAURE VINCENT ME 46   04:37:36 25,72 325
335 31 GALINIER JÉRÔME MF 45   04:37:55 25,69 326
336 552 VITHE DIDIER MG 56 US BESSINES SUR GARTEMPE 04:38:08 25,67 327
337 551 GOURNAY REMY MI 38 US BESSINES CYCLO 04:38:09 25,67 328
338 478 RENARD ERIC ME 47 usp le poinçonnet 04:38:11 25,67 329
339 241 VANHOUTTE PASCAL MH 40 AS MEUDON CYCLISME 04:38:13 25,66 330
340 133 PENY PHILIPPE MG 57 BRIANCE ROSELLE AVENTURE 04:38:13 25,66 331
341 531 DAVID ALAIN MH 41 FOYER CULTUREL VARETZ 04:38:15 25,66 332
342 428 DEVILETTE OLIVIER MF 46 AMICALE CYCLISTE SOSTRANIENNE 04:38:18 25,65 333
343 489 DEVORS DANIEL MJ 33 FOYER CULTUREL VARETZ 04:38:19 25,65 334
344 499 DELETREZ MICHAEL ME 48   04:38:20 25,65 335
345 470 PLEPST ROBERT MJ 34 Port ste foy 04:38:21 25,65 336
346 308 ARRAUD GILLES MH 42   04:38:22 25,65 337
347 779 LEPINE PATRICK MF 47   04:39:10 25,58 338
348 196 PASCAL BERNARD MH 43 ASPTT BRIVE 04:39:53 25,51 339
349 13 FRADILLON VALERIE FA2 5 ETOILE SPORTIVE CYCLISTE DU GRAND BOURG 04:40:08 25,49 10
350 15 MOREAU PIERRE MJ 35 ETOILE SPORTIVE CYCLISTE DU GRAND BOURG 04:41:28 25,37 340
351 262 BOREL JEAN PIERRE MI 39 AST CYCLO 04:41:32 25,36 341
352 537 CUNY NICOLAS ME 49 AMITIE ET NATURE MONTLUCON 04:41:58 25,32 342
353 790 NOM PRENOM MNR 4   04:42:03 25,31 343
354 446 TISSERAND JACQUES MJ 36   04:44:10 25,13 344
355 406 CHAUVEAU THIERRY MF 48 Meuzac évasions 04:44:11 25,12 345
356 445 CHALOPIN CLAUDE MJ 37 U C FLAVIGNAC 04:44:11 25,12 346
357 660 LARAUD JEAN FRANCOIS MG 58 ANC DUN LE PALESTEL 04:44:14 25,12 347
358 168 GAUCHER PATRICK MI 40   04:44:14 25,12 348
359 665 BARRIERE CLAUDE MJ 38 FOYER CULTUREL VARETZ 04:44:55 25,06 349
360 693 CHARBONNEL BERNARD MJ 39 FOYER CULTUREL VARETZ 04:44:56 25,06 350
361 768 WACH GILBERT MJ 40   04:47:32 24,83 351
362 394 DUPINET DANIEL MJ 41 C RACING CLUB LIMOUSIN 04:47:33 24,83 352
363 488 CORMENIER PATRICK MI 41   04:47:34 24,83 353
364 412 AFFIFCHAOUCHE YOANN MC 33   04:47:42 24,82 354
365 435 NEYRET RENE MJ 42 AMIS CYCLOS CHATEAUROUX 04:48:11 24,78 355
366 33 TRINDADE FRANCOIS MH 44   04:48:15 24,77 356
367 35 TRINDADE MICHEL MG 59   04:48:16 24,77 357
368 518 MARY GERARD MJ 43 CYCLO CLUB REMOIS 04:48:21 24,76 358
369 63 RENAULT MICHEL MJ 44 VC LA SOUTERRAINE 04:48:29 24,75 359
370 314 PHIALIP LAURENT MF 49 PANA LOISIRS 04:48:33 24,74 360
371 257 BRISSAUD MICHEL ANDRE MH 45 VELO CLUB MAGNAC LAVAL 04:49:15 24,68 361
372 513 LOUIS JEAN YVES MI 42 CS BELLAC CYCLISME 04:49:21 24,68 362
373 510 DUPONT FRANCOIS MH 46 CS BELLAC CYCLISME 04:49:21 24,68 363
374 509 DUBOUCHAUD GUY MI 43   04:49:21 24,68 364
375 512 FOUBERT DOMINIQUE MI 44 CS BELLAC CYCLISME 04:49:21 24,68 365
376 514 PIQUEPAILLE PIERRE MI 45 CS BELLAC CYCLISME 04:49:21 24,67 366
377 515 SPRIET THIERRY MI 46 CS BELLAC CYCLISME 04:49:23 24,67 367
378 338 CLAVAUD MARC MG 60 BOISSEUIL UNION CYCLISTE 04:49:48 24,64 368
379 441 BLANCHET JOEL MI 47 ST PALAIS 04:50:27 24,58 369
380 253 KINMONT JAMES MF 50 LONDON DYNAMO 04:50:27 24,58 370
381 185 PLUYAUD JEAN LOUIS MI 48 ASSO SAINT FIEL VITAMINE 04:50:30 24,58 371
382 547 MOURE PASCAL MH 47 US LE POINCONNET 04:50:50 24,55 372
383 548 ROUZAIRE JULIEN MD 37   04:50:50 24,55 373
384 305 NOEL GHISLAINE FA3 4   04:51:21 24,51 11
385 565 MORICHON VALERIE FA2 6   04:52:22 24,42 12
386 566 MORICHON ERIC MF 51   04:52:22 24,42 374
387 175 GENTY KEVIN MC 34 CC BOSMIE 04:52:57 24,37 375
388 529 JALLET GUY MJ 45   04:53:26 24,33 376
389 286 DOITEAU BERNARD MJ 46 PANA LOISIRS 04:53:40 24,31 377
390 600 BATHIER JEROME ME 50   04:53:41 24,31 378
391 313 DELAGE JEAN PIERRE MF 52 PANA LOISIRS 04:53:47 24,30 379
392 598 PERISSAT JEAN LOUIS MH 48   04:53:48 24,30 380
393 599 PHILLOUZAT JEROME ME 51   04:53:48 24,30 381
394 51 POUJAUD JEAN PIERRE MG 61   04:54:37 24,23 382
395 764 NORE ISABELLE MI 49   04:54:37 24,23 383
396 606 LOGE DANIEL MJ 47 ILLISIBLE 04:54:40 24,23 384
397 14 MOREAU DOMINIQUE MF 53 ETOILE SPORTIVE CYCLISTE DU GRAND BOURG 04:54:53 24,21 385
398 452 PREAU MICHEL MJ 48 CYCLOS ROCHEFORTAIS 04:54:58 24,21 386
399 380 BORDIER JEAN BRUNO MC 35   04:55:51 24,13 387
400 628 MIOLANE PASCALE FA3 5 CC LES COPAINS 04:55:53 24,13 13
401 630 CHANTELAUZE CORINNE FA3 6 CC LES COPAINS 04:55:54 24,13 14
402 626 BORDEL ROBERT MI 50 CC LES COPAINS 04:55:54 24,13 388
403 181 PEINTURIER ALAIN MJ 49 ASSO SAINT FIEL VITAMINE 04:56:01 24,12 389
404 351 LACOSTE MARTINE FA3 7 EVCC BERGERAC 04:56:53 24,05 15
405 332 JUST REMY MC 36 BOISSEUIL UNION CYCLISTE 04:57:44 23,98 390
406 659 PARROT CLAUDE MI 51 CC PALAISIEN 05:00:01 23,80 391
407 597 DEVEAUTOUR GILBERT MI 52 GUIDON BELLACHON 05:00:02 23,80 392
408 601 DEVEAUTOUR VINCENT MD 38   05:00:03 23,80 393
409 674 GALTIER AMICK MH 49 CYCLE POITEVIN 05:01:23 23,69 394
410 616 KIRSCH FRANCOIS MF 54   05:02:05 23,64 395
411 762 CHAINEAU LOUISON MC 37 cr laval nord 05:02:48 23,58 396
412 16 CHAZETTE RAYMOND MJ 50 ETOILE SPORTIVE CYCLISTE DU GRAND BOURG 05:02:55 23,57 397
413 766 NORE ISABELLE FA3 8   05:03:34 23,52 16
414 747 FOULON FRANCK MG 62 BOUSSAC 05:03:36 23,52 398
415 391 JOUHANNEAU YVES MH 50 CJL ARDENTES 05:04:20 23,46 399
416 656 CHICAULT PASCAL MI 53 CC PALAISIEN 05:04:29 23,45 400
417 216 BERNARD PHILIPPE MG 63   05:05:49 23,35 401
418 657 LAUTHIER CLAUDE MI 54 CC PALAISIEN 05:07:43 23,20 402
419 476 MAILLOCHEAU MICHEL MJ 51   05:08:18 23,16 403
420 251 LANNEVERE HENRI MJ 52 neant 05:09:59 23,03 404
421 306 COEFFEUR JEAN NOEL MJ 53   05:10:01 23,03 405
422 233 BRYON BERNARD MJ 54 VC VILLEJUST 05:10:34 22,99 406
423 146 POMPEIGNE JEAN PIERRE MI 55 UC MARTIZAY 05:12:19 22,86 407
424 654 CHAPUT CLAUDE MJ 55 Cyclo Club Palaisien 05:14:27 22,71 408
425 655 CHAUMOND CLAUDE MH 51 CC PALAISIEN 05:14:27 22,71 409
426 689 CHABROUX JACKY MG 64 Cyclo Club Palaisien 05:14:28 22,70 410
427 135 LASJAUNIAS ALAIN MI 56 AVENIR CYCLISTE COUSSAC BONNEVAL 05:18:11 22,44 411
428 433 BOUSSARDON JEAN FRANÇOIS MG 65 ST MEDARD EN JALLES 05:18:32 22,41 412
429 711 MAURIAT FRANCOISE FA3 9 SAGC TRIATHLON 05:21:59 22,17 17
430 712 MAURIAT PHILIPPE MJ 56   05:22:00 22,17 413
431 413 POUJAUD LIONEL MC 38   05:23:20 22,08 414
432 516 BUYSSENS YVAN MI 57   05:25:26 21,94 415
433 603 GAUCHER DIDIER MH 52 LIMOGES TRIATHLON 05:28:25 21,74 416
434 604 GAUCHER CEDRIC MC 39   05:28:32 21,73 417
435 458 PORTRAIT JEAN-MARC MH 53 AC CHASSENEUIL 05:29:14 21,69 418
436 467 JUSTIN DANIEL MJ 57 BAYEUX AC 05:29:19 21,68 419
437 742 CREIGNOU YANN MC 40   05:29:34 21,66 420
438 443 GUILLOT BERNARD MJ 58   05:31:33 21,53 421
439 11 BERGERON FRANCK MF 55 ETOILE SPORTIVE CYCLISTE DU GRAND BOURG 06:00:02 19,83 422
440 124 VERDY NICOLAS MC 43 AC CREUSOISE 00:00:00 4,96 423
441 130 ARNAUD SEBASTIEN ME 52 AC SOSTRANIENNE 00:00:00 4,96 424
442 137 GATILLON JEAN-YVES MG 66   00:00:00 4,96 425
443 170 FEUILLADE EMMANUEL MD 41 CC BOSMIE 00:00:00 4,96 426
444 200 BAROTIN YVES MH 54 cl martell cyclo 00:00:00 4,96 427
445 206 COQUILLAUD BRUNO MG 67 JA ISLE VELO LOISIR 00:00:00 4,96 428
446 207 DUMOND MARC MH 55 JA ISLE VELO LOISIR 00:00:00 4,96 429
447 208 DEBORT PATRICK MG 68 JA ISLE VELO LOISIR 00:00:00 4,96 430
448 209 VERGNE LIONEL MF 56 JA ISLE VELO LOISIR 00:00:00 4,96 431
449 211 DESCHAMPS ANDRE MJ 59 JA ISLE VELO LOISIR 00:00:00 4,96 432
450 231 COUTARD JÉRÔME MD 39 CC FEYTIAT 00:00:00 4,96 434
451 345 BLANCHAIN DAVID MC 41 LUDON MEDOC 00:00:00 4,96 435
452 437 AUDIAU AMAR MH 56 ASSM ST MEDARD EN JALLES 00:00:00 4,96 439
453 593 DAVID YANN MD 42 AS FRANSECHES 00:00:00 4,96 433
454 670 BRULON GUY MJ 60 VELO TOURISME À TRANZAULT 00:00:00 4,96 436
455 699 LEGRAND FLAVIEN MD 40   00:00:00 4,96 437
456 733 SARTOUT MAXIME MC 42 VCS LA SOUTERRAINE 00:00:00 4,96 438
457 668 LAGONOTTE FABIEN MF 57 ANC DUN LE PALESTEL 04:51:14 4,12 440